• En España
  • Lista de países
  • Para 7 días
  • Temperatura del agua
  • Mapa Satelital
  • El tiempo en el mapa
  • Informadores
  • user-avatar
    Iniciar sesión

    Tiempo cada hora Silistra

    Hoy, 19 Septiembre, Miércoles

    Tiempo Temperatura Precipitaciones Viento Presión Humedad
    00:00 +16°C° 0 mm 2 mps 763 mmHg 65%
    01:00 +16°C° 0 mm 1 mps 763 mmHg 68%
    02:00 +15°C° 0 mm 1 mps 763 mmHg 69%
    03:00 +15°C° 0 mm 1 mps 763 mmHg 71%
    04:00 +15°C° 0 mm 1 mps 763 mmHg 73%
    05:00 +14°C° 0 mm 1 mps 763 mmHg 75%
    06:00 +16°C° 0 mm 1 mps 763 mmHg 69%
    07:00 +18°C° 0 mm 1 mps 763 mmHg 64%
    08:00 +18°C° 0 mm 2 mps 763 mmHg 56%
    09:00 +20°C° 0 mm 2 mps 763 mmHg 50%
    10:00 +23°C° 0 mm 2 mps 763 mmHg 44%
    11:00 +25°C° 0 mm 3 mps 763 mmHg 38%
    12:00 +26°C° 0 mm 3 mps 763 mmHg 35%
    13:00 +27°C° 0 mm 3 mps 763 mmHg 31%
    14:00 +28°C° 0 mm 3 mps 762 mmHg 28%
    15:00 +27°C° 0 mm 3 mps 762 mmHg 29%
    16:00 +27°C° 0 mm 3 mps 762 mmHg 31%
    17:00 +26°C° 0 mm 4 mps 761 mmHg 32%
    18:00 +24°C° 0 mm 3 mps 762 mmHg 40%
    19:00 +21°C° 0 mm 3 mps 762 mmHg 48%
    20:00 +18°C° 0 mm 3 mps 762 mmHg 56%
    21:00 +18°C° 0 mm 3 mps 762 mmHg 60%
    22:00 +17°C° 0 mm 2 mps 762 mmHg 65%
    23:00 +16°C° 0 mm 2 mps 762 mmHg 69%

    Mañana, 20 Septiembre, Jueves

    Tiempo Temperatura Precipitaciones Viento Presión Humedad
    00:00 +16°C° 0 mm 1 mps 762 mmHg 71%
    01:00 +15°C° 0 mm 1 mps 762 mmHg 74%
    02:00 +15°C° 0 mm 1 mps 762 mmHg 76%
    03:00 +15°C° 0 mm 1 mps 762 mmHg 77%
    04:00 +14°C° 0 mm 1 mps 762 mmHg 79%
    05:00 +14°C° 0 mm 1 mps 762 mmHg 80%
    06:00 +16°C° 0 mm 1 mps 762 mmHg 74%
    07:00 +18°C° 0 mm 1 mps 762 mmHg 68%
    08:00 +20°C° 0 mm 1 mps 762 mmHg 62%
    09:00 +21°C° 0 mm 2 mps 762 mmHg 55%
    10:00 +24°C° 0 mm 2 mps 762 mmHg 48%
    11:00 +26°C° 0 mm 2 mps 762 mmHg 41%
    12:00 +27°C° 0 mm 2 mps 761 mmHg 38%
    13:00 +28°C° 0 mm 3 mps 761 mmHg 35%
    14:00 +29°C° 0 mm 3 mps 761 mmHg 31%
    15:00 +29°C° 0 mm 3 mps 760 mmHg 32%
    16:00 +29°C° 0 mm 3 mps 760 mmHg 33%
    17:00 +28°C° 0 mm 3 mps 760 mmHg 34%
    18:00 +26°C° 0 mm 3 mps 760 mmHg 42%
    19:00 +24°C° 0 mm 3 mps 760 mmHg 50%
    20:00 +21°C° 0 mm 3 mps 760 mmHg 58%
    21:00 +20°C° 0 mm 2 mps 760 mmHg 62%
    22:00 +19°C° 0 mm 2 mps 760 mmHg 67%
    23:00 +19°C° 0 mm 1 mps 760 mmHg 71%

    Pasado mañana, 21 Septiembre, Viernes

    Tiempo Temperatura Precipitaciones Viento Presión Humedad
    00:00 +19°C° 0 mm 1 mps 760 mmHg 73%
    01:00 +19°C° 0 mm 1 mps 760 mmHg 75%
    02:00 +16°C° 0 mm 0 mps 760 mmHg 77%
    03:00 +18°C° 0 mm 1 mps 760 mmHg 78%
    04:00 +18°C° 0 mm 1 mps 760 mmHg 78%
    05:00 +16°C° 0 mm 1 mps 760 mmHg 79%
    06:00 +19°C° 0 mm 1 mps 760 mmHg 73%
    07:00 +20°C° 0 mm 1 mps 760 mmHg 67%
    08:00 +21°C° 0 mm 1 mps 760 mmHg 60%
    09:00 +24°C° 0 mm 2 mps 760 mmHg 52%
    10:00 +26°C° 0 mm 2 mps 760 mmHg 44%
    11:00 +28°C° 0 mm 3 mps 760 mmHg 35%
    12:00 +29°C° 0 mm 3 mps 760 mmHg 33%
    13:00 +30°C° 0 mm 3 mps 760 mmHg 30%
    14:00 +31°C° 0 mm 3 mps 759 mmHg 27%
    15:00 +30°C° 0 mm 3 mps 759 mmHg 29%
    16:00 +30°C° 0 mm 3 mps 759 mmHg 30%
    17:00 +29°C° 0 mm 3 mps 759 mmHg 31%
    18:00 +27°C° 0 mm 3 mps 759 mmHg 39%
    19:00 +25°C° 0 mm 3 mps 759 mmHg 47%
    20:00 +22°C° 0 mm 3 mps 759 mmHg 54%
    21:00 +21°C° 0 mm 3 mps 759 mmHg 60%
    22:00 +20°C° 0 mm 2 mps 759 mmHg 65%
    23:00 +19°C° 0 mm 2 mps 759 mmHg 71%

    22 Septiembre, Sábado

    Tiempo Temperatura Precipitaciones Viento Presión Humedad
    00:00 +19°C° 0 mm 2 mps 759 mmHg 72%
    01:00 +20°C° 0 mm 1 mps 759 mmHg 74%
    02:00 +19°C° 0 mm 1 mps 759 mmHg 75%
    03:00 +19°C° 0 mm 1 mps 759 mmHg 75%
    04:00 +19°C° 0 mm 1 mps 759 mmHg 76%
    05:00 +19°C° 0 mm 1 mps 759 mmHg 76%
    06:00 +20°C° 0 mm 1 mps 759 mmHg 70%
    07:00 +21°C° 0 mm 1 mps 759 mmHg 64%
    08:00 +22°C° 0 mm 1 mps 759 mmHg 58%
    09:00 +25°C° 0 mm 1 mps 759 mmHg 49%
    10:00 +27°C° 0 mm 1 mps 759 mmHg 41%
    11:00 +29°C° 0 mm 1 mps 759 mmHg 32%
    12:00 +30°C° 0 mm 1 mps 758 mmHg 29%
    13:00 +31°C° 0 mm 2 mps 758 mmHg 25%
    14:00 +32°C° 0 mm 2 mps 757 mmHg 22%
    15:00 +31°C° 0 mm 2 mps 757 mmHg 23%
    16:00 +31°C° 0 mm 2 mps 757 mmHg 25%
    17:00 +31°C° 0 mm 2 mps 756 mmHg 26%
    18:00 +28°C° 0 mm 2 mps 757 mmHg 32%
    19:00 +26°C° 0 mm 2 mps 757 mmHg 38%
    20:00 +24°C° 0 mm 2 mps 757 mmHg 44%
    21:00 +22°C° 0 mm 3 mps 757 mmHg 46%
    22:00 +21°C° 0 mm 3 mps 757 mmHg 48%
    23:00 +21°C° 0 mm 3 mps 757 mmHg 50%

    23 Septiembre, Domingo

    Tiempo Temperatura Precipitaciones Viento Presión Humedad
    00:00 +21°C° 0 mm 3 mps 757 mmHg 50%
    01:00 +20°C° 0 mm 3 mps 757 mmHg 50%
    02:00 +20°C° 0 mm 3 mps 756 mmHg 50%
    03:00 +20°C° 0 mm 3 mps 756 mmHg 49%
    04:00 +20°C° 0 mm 3 mps 756 mmHg 49%
    05:00 +20°C° 0 mm 3 mps 756 mmHg 48%
    06:00 +21°C° 0 mm 3 mps 757 mmHg 46%
    07:00 +22°C° 0 mm 4 mps 757 mmHg 43%
    08:00 +25°C° 0 mm 4 mps 758 mmHg 40%
    09:00 +25°C° 0 mm 5 mps 758 mmHg 41%
    10:00 +25°C° 0 mm 5 mps 759 mmHg 42%
    11:00 +26°C° 0 mm 6 mps 759 mmHg 42%
    12:00 +26°C° 0 mm 6 mps 759 mmHg 42%
    13:00 +26°C° 0 mm 6 mps 759 mmHg 41%
    14:00 +26°C° 0 mm 6 mps 759 mmHg 40%
    15:00 +26°C° 0 mm 5 mps 759 mmHg 40%
    16:00 +25°C° 0 mm 5 mps 759 mmHg 40%
    17:00 +25°C° 0 mm 5 mps 759 mmHg 39%
    18:00 +22°C° 0 mm 4 mps 760 mmHg 42%
    19:00 +21°C° 0 mm 4 mps 760 mmHg 44%
    20:00 +20°C° 0 mm 3 mps 760 mmHg 47%
    21:00 +19°C° 0 mm 3 mps 760 mmHg 49%
    22:00 +18°C° 0 mm 3 mps 760 mmHg 51%
    23:00 +18°C° 0 mm 3 mps 760 mmHg 53%

    24 Septiembre, Lunes

    Tiempo Temperatura Precipitaciones Viento Presión Humedad
    00:00 +17°C° 0 mm 3 mps 760 mmHg 56%
    01:00 +17°C° 0 mm 3 mps 760 mmHg 59%
    02:00 +17°C° 0 mm 3 mps 760 mmHg 61%
    03:00 +17°C° 0 mm 3 mps 759 mmHg 64%
    04:00 +17°C° 0 mm 3 mps 759 mmHg 67%
    05:00 +17°C° 0 mm 3 mps 759 mmHg 70%
    06:00 +18°C° 0 mm 4 mps 758 mmHg 67%
    07:00 +19°C° 0 mm 5 mps 758 mmHg 65%
    08:00 +21°C° 0 mm 5 mps 758 mmHg 62%
    09:00 +23°C° 0 mm 6 mps 758 mmHg 57%
    10:00 +26°C° 0 mm 6 mps 757 mmHg 52%
    11:00 +27°C° 0 mm 6 mps 757 mmHg 47%
    12:00 +28°C° 0 mm 6 mps 756 mmHg 46%
    13:00 +29°C° 0 mm 6 mps 756 mmHg 44%
    14:00 +30°C° 0 mm 6 mps 755 mmHg 43%
    15:00 +29°C° 0 mm 7 mps 755 mmHg 46%
    16:00 +28°C° 0 mm 7 mps 754 mmHg 49%
    17:00 +27°C° 0 mm 7 mps 754 mmHg 53%
    18:00 +24°C° 0 mm 6 mps 754 mmHg 59%
    19:00 +22°C° 0 mm 6 mps 754 mmHg 66%
    20:00 +21°C° 0 mm 6 mps 754 mmHg 73%
    21:00 +20°C° 0 mm 5 mps 753 mmHg 75%
    22:00 +20°C° 0 mm 5 mps 753 mmHg 76%
    23:00 +19°C° 0 mm 5 mps 753 mmHg 78%
    Mostrar más